sat.trackr.live / text

‹ back to catalog

STARLINK-6276

NORAD 57355 · 2023-099AD

PAYLOAD ACTIVE UNKNOWN

§ Identity

Operator
Country
US
Launch date
2023-07-16
Launch site
AFETR
Launch vehicle
Mass (kg)
RCS (m²)

Purposes: comms

External: N2YO · Heavens-Above · Gunter

§ Orbital elements

Epoch: 2026-09-20T22:09:47.070144Z

Period
94.27 min
Inclination
43.0040°
Eccentricity
0.0000523
Mean motion
15.27575434 rev/d
Perigee alt
482.7 km
Apogee alt
483.4 km
Semi-major
6,861.2 km
B*
8.4303e-6
RAAN
219.4600°
Arg perigee
291.6789°
Mean anomaly
68.4007°
Rev number
17,605

§ Raw data

STARLINK-62761 57355U 23099AD  26263.92346146 -.00000030  00000+0  84303-5 0  99982 57355  43.0040 219.4600 0000523 291.6789  68.4007 15.27575434176059

JSON: /api/v1/satellites/57355 · /tle

For live sub-satellite position, see the globe view (requires WebGL).

§ Visibility from observer

Set your observer location to see the next 7 days of passes ≥ 10°. The values pass through the URL so the page stays shareable.

No JS? Fill the form by hand. The geolocation button needs JavaScript.